This is the latest recevied weather packets stored in our database for station/object KD8NVS-13. If no packets are shown the sender has not sent any weather packets the latest 10 day(s).
| Time | Temp. | Humidity | Pressure | Rain* | Wind** | Luminosity | Snow |
|---|---|---|---|---|---|---|---|
| 1777565444 | 10° C | 76% | 1005.9 hPa | 0 mm | - | 193 W/m² | - |
| 1777565140 | 9.44° C | 77% | 1005.9 hPa | 0 mm | - | 250 W/m² | - |
| 1777564832 | 9.44° C | 77% | 1005.5 hPa | 0 mm | - | 286 W/m² | - |
| 1777564527 | 9.44° C | 77% | 1005.9 hPa | 0 mm | - | 190 W/m² | - |
| 1777564222 | 9.44° C | 77% | 1005.9 hPa | 0 mm | - | 164 W/m² | - |
| 1777563919 | 8.89° C | 78% | 1005.9 hPa | 0 mm | - | 201 W/m² | - |
| 1777563614 | 8.89° C | 79% | 1005.9 hPa | 0 mm | - | 161 W/m² | - |
| 1777563309 | 8.89° C | 79% | 1005.5 hPa | 0 mm | - | 139 W/m² | - |
| 1777563005 | 8.89° C | 79% | 1005.9 hPa | 0 mm | - | 146 W/m² | - |
| 1777562701 | 8.89° C | 78% | 1005.9 hPa | 0 mm | - | 192 W/m² | - |
| 1777562400 | 8.33° C | 80% | 1005.9 hPa | 0 mm | - | 222 W/m² | - |
| 1777562097 | 8.33° C | 80% | 1005.9 hPa | 0 mm | - | 222 W/m² | - |
| 1777561795 | 8.33° C | 80% | 1005.5 hPa | 0 mm | - | 92 W/m² | - |
| 1777561490 | 8.89° C | 80% | 1005.5 hPa | 0 mm | - | 45 W/m² | - |
| 1777561185 | 9.44° C | 79% | 1005.5 hPa | 0 mm | - | 70 W/m² | - |
| 1777560880 | 8.89° C | 79% | 1005.2 hPa | 0 mm | - | 343 W/m² | - |
| 1777560578 | 8.33° C | 81% | 1005.2 hPa | 0 mm | - | 229 W/m² | - |
| 1777560276 | 8.33° C | 81% | 1005.2 hPa | 0 mm | - | 175 W/m² | - |
| 1777559972 | 8.33° C | 82% | 1005.5 hPa | 0 mm | - | 152 W/m² | - |
| 1777559668 | 8.33° C | 83% | 1005.2 hPa | 0 mm | - | 187 W/m² | - |
| 1777559366 | 8.33° C | 84% | 1005.2 hPa | 0 mm | - | 58 W/m² | - |
| 1777559062 | 8.33° C | 84% | 1005.2 hPa | 0 mm | - | 59 W/m² | - |
| 1777558756 | 8.33° C | 85% | 1005.2 hPa | 0 mm | - | 84 W/m² | - |
| 1777558453 | 8.33° C | 85% | 1005.2 hPa | 0 mm | - | 129 W/m² | - |
| 1777558149 | 7.78° C | 86% | 1004.9 hPa | 0 mm | - | 146 W/m² | - |
* Rain latest hour (hover to see other rain measurements)
** Current wind speed in m/s (hover to see current wind gust speed)